Regional Weather Roundup
Issued by NWS Glasgow, MT

Home | Current Version | Previous Version | Text Only | Print | Product List | Glossary On
Versions: 1 2 3 4 5 6 7 8 9 10 11 12 13 14 15 16 17 18 19 20 21 22 23 24 25 26 27 28 29 30 31 32 33 34 35 36 37 38 39 40 41 42 43 44 45 46 47 48 49 50
000
ASUS45 KGGW 230715
RWRGGW
HOURLY WEATHER ROUNDUP FOR NORTHEAST MONTANA
NATIONAL WEATHER SERVICE GLASGOW MONTANA
100 AM MDT SAT AUG 23 2014

NOTE: "FAIR" INDICATES FEW OR NO CLOUDS BELOW 12,000 FEET WITH NO
SIGNIFICANT WEATHER AND/OR OBSTRUCTIONS TO VISISBILITY.

NORTHEAST MONTANA


CITY           SKY/WX    TMP DP  RH WIND       PRES   REMARKS
GLASGOW        CLOUDY    61  53  75 NE17      30.08F
PLENTYWOOD       N/A     58  52  80 E15         N/A
WOLF POINT     CLOUDY    62  55  77 NE21G26   30.09F
JORDAN           N/A     59  57  93 E15       30.04F
WINNETT          N/A     58  56  93 NE10        N/A
SIDNEY         CLOUDY    61  59  94 NE12      30.08F
GLENDIVE       CLOUDY    61  61 100 NE14      30.05S
MALTA            N/A     60  53  77 NE8         N/A

FORT PECK REPORTS


CITY           SKY/WX    TMP DP  RH WIND       PRES   REMARKS
FORT PECK        N/A     62  55  77 NE21        N/A
THE PINES        N/A     63  55  75 NE20G31     N/A

SOUTHEAST MONTANA


CITY           SKY/WX    TMP DP  RH WIND       PRES   REMARKS
BILLINGS       CLOUDY    60  59  96 NE7       29.99S FOG
MILES CITY     CLOUDY    63  61  93 NE9       29.97F
BAKER          LGT RAIN  63  61  93 E16       30.02F
LIVINGSTON     CLOUDY    54  51  90 N3        30.05F

CENTRAL MONTANA


CITY           SKY/WX    TMP DP  RH WIND       PRES   REMARKS
HAVRE          CLOUDY    56  54  93 E15       30.13S
LEWISTOWN      CLOUDY    55  53  93 N8        30.07F
GREAT FALLS    CLOUDY    49  48  97 NW20      30.13F
CUT BANK       LGT RAIN  47  45  93 N21       30.23S
HELENA         RAIN      50  48  93 W6        30.14R FOG
BUTTE          CLOUDY    49  46  90 NW3       30.11F
BOZEMAN        CLOUDY    54  51  90 CALM      30.06F

WESTERN MONTANA


CITY           SKY/WX    TMP DP  RH WIND       PRES   REMARKS
MISSOULA       LGT RAIN  58  50  75 CALM      30.11S
KALISPELL      NOT AVBL

NORTH DAKOTA


CITY           SKY/WX    TMP DP  RH WIND       PRES   REMARKS
WILLISTON      CLOUDY    61  56  83 NE17G23   30.11F
DICKINSON      CLOUDY    62  61  96 E17       30.04F FOG
MINOT          CLOUDY    60  55  83 NE8       30.13F
BISMARCK       CLOUDY    65  61  87 E14       30.07F

SOUTHERN SASKATCHEWAN


CITY           SKY/WX    TMP DP  RH WIND       PRES   REMARKS
REGINA         CLOUDY    55  52  88 NE9       30.22F
ESTEVAN        MOCLDY    57  52  82 E12       30.19F
SWIFT CURRENT  CLOUDY    55  54  94 NE12      30.21F




USA.gov is the U.S. government's official web portal to all federal, state and local government web resources and services.